Regional Weather Roundup
Issued by NWS

Home | Current Version | Previous Version | Text Only | Print | Product List | Glossary Off
Versions: 1 2 3 4 5 6 7 8 9 10 11 12 13 14 15 16 17 18 19 20 21 22 23 24 25 26 27 28 29 30 31 32 33 34 35 36 37 38 39 40 41 42 43 44 45 46 47 48 49 50

966
ASUS45 KABQ 181601
RWRNM
NEW MEXICO REGIONAL WEATHER ROUNDUP
NATIONAL WEATHER SERVICE ALBUQUERQUE NM
900 AM MST SUN FEB 18 2018

NOTE: "FAIR" MEANS FEW OR NO CLOUDS BELOW 12,000 FEET AGL WITH NO
       SIGNIFICANT WEATHER OR OBSTRUCTIONS TO VISION.

      THIS PRODUCT IS RELEASED AS TWO VERSIONS.  ONE VERSION NEAR
      THE TOP OF THE HOUR CONTAINING PRELIMINARY DATA FROM ALBUQUERQUE
      AND OTHER STATIONS.  A FINAL VERSION WITH ADDITIONAL DATA IS
      ISSUED ABOUT 10 MINUTES AFTER THE HOUR.

NMZ501-503-504-510>518-181700-
NORTHWEST PLATEAU/NORTHCENTRAL MOUNTAINS

CITY           SKY/WX    TMP DP  RH WIND       PRES   REMARKS
FARMINGTON     FAIR      33  19  56 E6        29.96F WCI  28
LOS ALAMOS     FAIR      36  36 100 S12       30.00F WCI  28
SANTA FE       FAIR      41  37  86 W9        30.00F
TAOS           CLOUDY    38  32  79 SW10G17   30.01F WCI  31
ANGEL FIRE     FAIR      35  24  64 W14G21    29.95F WCI  26

$$
NMZ402-403-502-505>509-181700-
WESTCENTRAL MOUNTAINS/SOUTHWEST MOUNTAINS

CITY           SKY/WX    TMP DP  RH WIND       PRES   REMARKS
GALLUP         FAIR      44  35  70 SW14      29.99F
GRANTS         FAIR      40  28  60 SE13      30.03F WCI  33
SILVER CITY    CLOUDY    49  45  86 CALM      30.07R

$$
NMZ407-409-411-412-181700-
SOUTHERN DESERTS

CITY           SKY/WX    TMP DP  RH WIND       PRES   REMARKS
DEMING         FAIR      50  45  83 CALM      30.05R
LAS CRUCES     FAIR      55  46  71 S6        30.06R
ALAMOGORDO     FAIR      50  39  66 CALM      30.06S
T OR C         FAIR      49  44  83 CALM      30.03S

$$
NMZ519>523-181700-
CENTRAL VALLEYS/CENTRAL HIGHLANDS

CITY           SKY/WX    TMP DP  RH WIND       PRES   REMARKS
ALBUQUERQUE    PTSUNNY   42  40  92 S5        30.02S
MORIARTY ARPT  FAIR      45  37  73 CALM      30.01S
CLINES CORNERS NOT AVBL
BELEN          FAIR      46  40  78 S8        30.02S
SOCORRO        FAIR      46  41  83 CALM      30.03F

$$
NMZ524>526-539-540-181700-
SOUTHCENTRAL MOUNTAINS

CITY           SKY/WX    TMP DP  RH WIND       PRES   REMARKS
RUIDOSO        NOT AVBL

$$
NMZ527>531-181700-
NORTHEAST HIGHLANDS/NORTHEAST PLAINS

CITY           SKY/WX    TMP DP  RH WIND       PRES   REMARKS
LAS VEGAS      FAIR      48  27  44 SW23G30   29.88F
RATON          FAIR      38  22  52 SW7       29.82F WCI  33
CLAYTON        FAIR      47  30  51 SW22G30   29.80F

$$
NMZ532>537-181700-
EASTCENTRAL PLAINS

CITY           SKY/WX    TMP DP  RH WIND       PRES   REMARKS
SANTA ROSA     FAIR      52  38  59 SW17G24   29.93F
TUCUMCARI      FAIR      52  34  50 SW22      29.88F
CANNON AFB     FAIR      45  41  85 W10       29.97F
CLOVIS AIRPORT NOT AVBL

$$
NMZ028-029-538-181700-
SOUTHEAST PLAINS

CITY           SKY/WX    TMP DP  RH WIND       PRES   REMARKS
ROSWELL        FAIR      47  36  65 S8        29.97F
ARTESIA        FAIR      48  41  76 S15       29.99S
CARLSBAD       FAIR      52  41  66 MISG      30.00F
HOBBS          SUNNY     52  36  54 S13       30.02F


$$




USA.gov is the U.S. government's official web portal to all federal, state and local government web resources and services.